DateTimeUTC,F1_A11,F1_S11,BsB_S11,BsG_S11,BsR_S11,BbsB_S11,BbsG_S11,BbsR_S11,BaB_A11,BaG_A11,BaR_A11,Tu_S11,T_S11,Uu_S11,U_S11,P_S11,T1_A11
2021-08-05T22:00:00Z,00000200,20000000,,,,,,,-000.21,0000.24,-000.05,19.3,26.3,05.0,03.3,0669.6,31.1
2021-08-05T22:01:00Z,00000200,20000000,,,,,,,0000.19,0000.22,0000.24,19.3,26.3,05.0,03.3,0669.6,31.1
2021-08-05T22:02:00Z,00000200,20000000,,,,,,,-000.19,-000.46,-000.46,19.3,26.3,05.0,03.3,0669.6,31.1
2021-08-05T22:03:00Z,00000200,60000000,,,,,,,0000.69,0000.72,0000.57,19.3,26.3,05.0,03.3,0669.6,31.1
2021-08-05T22:04:00Z,00000200,40000000,0005.20,0002.79,0001.50,0000.50,0000.42,0000.32,0001.03,0000.86,0000.60,19.4,26.1,05.1,03.4,0670.5,31.1
2021-08-05T22:05:00Z,00000200,00000000,0004.84,0003.02,0001.12,0000.59,0000.57,0000.42,0000.77,0000.70,0000.71,19.5,26.0,05.2,03.5,0670.6,31.1
2021-08-05T22:06:00Z,00000200,00000000,0004.29,0003.06,0001.54,0000.55,0000.76,0000.33,0001.12,0001.24,0000.86,19.5,26.0,05.2,03.5,0670.6,31.1
2021-08-05T22:07:00Z,00000200,00000000,0004.87,0002.72,0001.53,0000.72,0000.51,0000.12,0000.72,0000.53,0000.57,19.5,26.0,05.3,03.6,0670.6,31.1
2021-08-05T22:08:00Z,00000200,00000000,0004.46,0002.96,0001.64,0000.44,0000.41,0000.54,0001.20,0000.89,0000.45,19.5,26.0,05.2,03.5,0670.6,31.1
2021-08-05T22:09:00Z,00000200,00000000,0005.00,0002.82,0001.69,0000.71,0000.31,0000.58,0001.01,0001.20,0000.89,19.5,26.0,05.2,03.5,0670.6,31.1
2021-08-05T22:10:00Z,00000200,00000000,0004.42,0002.94,0001.45,0000.65,0000.38,0000.53,0000.92,0000.93,0000.67,19.5,26.0,05.2,03.5,0670.6,31.1
2021-08-05T22:11:00Z,00000200,00000000,0004.23,0002.90,0001.59,0000.50,0000.25,0000.62,0000.95,0000.77,0000.77,19.5,26.0,05.2,03.5,0670.6,31.1
2021-08-05T22:12:00Z,00000200,00000000,0004.89,0002.74,0001.63,0000.29,0000.46,0000.50,0001.05,0000.78,0000.45,19.5,26.0,05.3,03.5,0670.6,31.1
2021-08-05T22:13:00Z,00000200,00000000,0004.48,0003.00,0001.44,0000.53,0000.56,0000.16,0000.83,0000.81,0000.85,19.5,25.9,05.2,03.5,0670.6,31.1
2021-08-05T22:14:00Z,00000200,00000000,0004.23,0003.04,0001.41,0000.20,0000.78,0000.38,0000.96,0001.12,0000.33,19.5,25.9,05.3,03.6,0670.6,31.1
2021-08-05T22:15:00Z,00000200,00000000,0004.91,0003.15,0001.86,0000.57,0000.12,0000.53,0000.90,0000.61,0000.95,19.5,25.9,05.2,03.5,0670.6,31.1
2021-08-05T22:16:00Z,00000200,00000000,0005.06,0002.70,0001.46,0000.70,0000.55,0000.23,0001.03,0000.95,0001.00,19.5,25.9,05.3,03.6,0670.6,31.1
2021-08-05T22:17:00Z,00000200,00000000,0005.16,0003.19,0001.60,0001.08,0000.62,0000.20,0001.20,0001.20,0000.57,19.5,25.9,05.3,03.6,0670.6,31.1
2021-08-05T22:18:00Z,00000200,00000000,0004.81,0003.11,0001.56,0000.47,0000.51,0000.37,0000.78,0001.11,0000.73,19.5,25.9,05.3,03.6,0670.6,31.1
2021-08-05T22:19:00Z,00000200,00000000,0004.50,0003.10,0001.63,0000.79,0000.79,0000.51,0001.21,0000.53,0000.78,19.5,25.9,05.3,03.6,0670.6,31.1
2021-08-05T22:20:00Z,00000200,00000000,0005.13,0003.10,0001.89,0000.30,0000.41,0000.67,0001.12,0001.12,0000.57,19.4,25.9,05.2,03.5,0670.6,31.1
2021-08-05T22:21:00Z,00000200,00000000,0004.70,0003.00,0002.11,0000.76,0000.46,0000.69,0000.76,0000.62,0000.71,19.4,25.9,05.3,03.6,0670.5,31.1
2021-08-05T22:22:00Z,00000200,00000000,0005.14,0002.95,0001.61,0000.80,0000.34,-000.11,0001.00,0000.89,0000.53,19.4,25.9,05.3,03.6,0670.5,31.1
2021-08-05T22:23:00Z,00000200,00000000,0004.40,0003.12,0001.87,0000.73,0000.32,0000.65,0001.26,0001.32,0000.92,19.4,25.9,05.3,03.6,0670.5,31.1
2021-08-05T22:24:00Z,00000200,00000000,0005.23,0002.83,0001.89,0001.26,0000.70,0000.55,0000.74,0000.73,0000.69,19.4,25.9,05.4,03.6,0670.5,31.1
2021-08-05T22:25:00Z,00000200,00000000,0004.32,0002.70,0001.51,0000.52,0000.48,0000.36,0001.29,0001.11,0000.72,19.4,25.9,05.3,03.6,0670.5,31.1
2021-08-05T22:26:00Z,00000200,00000000,0005.25,0002.71,0001.20,0001.19,0000.23,0000.04,0000.54,0000.57,0000.73,19.4,25.9,05.4,03.6,0670.5,31.1
2021-08-05T22:27:00Z,00000200,00000000,0004.08,0002.98,0001.77,0000.58,0000.67,0000.60,0001.06,0000.78,0000.56,19.4,25.9,05.4,03.6,0670.5,31.1
2021-08-05T22:28:00Z,00000200,00000000,0004.59,0002.87,0001.89,0001.10,0000.56,0000.41,0001.06,0001.53,0000.90,19.4,25.8,05.4,03.6,0670.5,31.1
2021-08-05T22:29:00Z,00000200,00000000,0005.06,0002.93,0001.38,0000.22,0000.54,0000.16,0000.88,0000.60,0000.61,19.4,25.8,05.4,03.7,0670.5,31.1
2021-08-05T22:30:00Z,00000200,00000000,0004.23,0003.02,0001.67,0001.08,0000.42,0000.45,0001.31,0000.89,0000.31,19.4,25.8,05.4,03.6,0670.5,31.1
2021-08-05T22:31:00Z,00000200,00000000,0004.82,0003.17,0001.31,0000.84,0000.39,0000.22,0000.68,0000.86,0001.04,19.4,25.8,05.3,03.6,0670.5,31.1
2021-08-05T22:32:00Z,00000200,00000000,0004.15,0002.96,0001.45,0000.89,0000.44,0000.49,0001.03,0000.74,0000.39,19.4,25.8,05.5,03.7,0670.5,31.1
2021-08-05T22:33:00Z,00000200,00000000,0004.72,0002.91,0001.68,0000.71,0000.20,0000.73,0001.01,0001.20,0001.15,19.3,25.8,05.5,03.7,0670.5,31.1
2021-08-05T22:34:00Z,00000200,00000000,0004.94,0003.04,0001.63,0000.41,0000.42,0000.22,0001.14,0000.74,0000.54,19.3,25.8,05.3,03.6,0670.5,31.1
2021-08-05T22:35:00Z,00000200,00000000,0004.46,0003.17,0001.63,0000.42,0000.38,0000.27,0000.74,0000.74,0000.64,19.3,25.8,05.4,03.7,0670.5,31.1
2021-08-05T22:36:00Z,00000200,00000000,0004.13,0002.94,0001.56,0000.71,0000.50,0000.66,0001.17,0001.05,0000.64,19.3,25.8,05.3,03.6,0670.5,31.1
2021-08-05T22:37:00Z,00000200,00000000,0005.22,0002.98,0001.90,0000.93,0000.31,0000.62,0000.93,0000.99,0000.68,19.3,25.8,05.3,03.6,0670.5,31.1
2021-08-05T22:38:00Z,00000200,00000000,0004.69,0002.93,0001.63,0000.40,0000.61,0000.17,0000.74,0000.67,0000.76,19.3,25.8,05.4,03.6,0670.5,31.1
2021-08-05T22:39:00Z,00000200,00000000,0004.84,0002.97,0001.63,0000.69,0000.46,0000.40,0001.09,0000.71,0000.72,19.3,25.8,05.4,03.7,0670.5,31.1
2021-08-05T22:40:00Z,00000200,00000000,0004.08,0002.84,0001.61,0000.59,0000.52,0000.49,0001.39,0001.12,0000.71,19.3,25.8,05.4,03.6,0670.5,31.1
2021-08-05T22:41:00Z,00000200,00000000,0004.48,0003.50,0001.78,0000.78,0000.29,0000.24,0000.50,0000.84,0000.57,19.3,25.8,05.4,03.7,0670.5,31.1
2021-08-05T22:42:00Z,00000200,00000000,0004.52,0002.92,0002.12,0000.76,0000.24,0000.52,0000.99,0000.93,0000.88,19.3,25.8,05.5,03.7,0670.5,31.1
2021-08-05T22:43:00Z,00000200,00000000,0005.03,0002.91,0001.25,0000.46,0000.32,0000.13,0001.14,0000.95,0000.60,19.3,25.7,05.4,03.6,0670.5,31.1
2021-08-05T22:44:00Z,00000200,00000000,0004.71,0003.23,0001.70,0000.99,0000.52,0000.39,0001.04,0001.10,0000.52,19.3,25.7,05.5,03.7,0670.5,31.1
2021-08-05T22:45:00Z,00000200,00000000,0005.05,0003.21,0001.63,0000.55,0000.60,0000.44,0001.12,0000.56,0000.71,19.3,25.7,05.4,03.6,0670.5,31.1
2021-08-05T22:46:00Z,00000200,00000000,0004.85,0003.00,0001.61,0000.60,0000.63,0000.26,0000.83,0000.90,0000.70,19.3,25.7,05.4,03.7,0670.5,31.1
2021-08-05T22:47:00Z,00000200,00000000,0004.69,0002.85,0001.96,0000.94,0000.32,0000.46,0001.03,0001.26,0000.91,19.3,25.7,05.5,03.7,0670.5,31.1
2021-08-05T22:48:00Z,00000200,00000000,0004.10,0002.75,0001.86,0000.58,0000.44,0000.46,0000.99,0000.83,0000.80,19.3,25.7,05.5,03.7,0670.5,31.1
2021-08-05T22:49:00Z,00000200,00000000,0004.47,0003.07,0001.72,0000.77,0000.58,0000.12,0000.97,0000.90,0000.54,19.3,25.7,05.6,03.8,0670.5,31.1
2021-08-05T22:50:00Z,00000200,00000000,0004.96,0003.02,0001.85,0000.67,0000.72,0000.37,0000.82,0000.49,0000.47,19.2,25.7,05.6,03.8,0670.5,31.1
2021-08-05T22:51:00Z,00000200,00000000,0004.45,0002.91,0001.39,0000.17,0000.70,0000.23,0001.19,0001.17,0000.75,19.2,25.7,05.5,03.7,0670.5,31.1
2021-08-05T22:52:00Z,00000200,00000000,0004.48,0002.73,0001.61,0000.73,0000.50,0000.27,0000.74,0000.53,0000.39,19.2,25.7,05.5,03.7,0670.5,31.1
2021-08-05T22:53:00Z,00000200,00000000,0004.01,0002.17,0001.25,0000.23,0000.58,0000.54,0000.02,0000.20,-000.39,19.2,25.7,05.5,03.7,0670.5,31.1
2021-08-05T22:54:00Z,00000200,00000000,0002.35,0001.37,0000.61,0000.56,0000.32,0000.02,0000.85,0000.56,0000.37,19.2,25.7,05.0,03.4,0670.5,31.1
2021-08-05T22:55:00Z,00000200,00000000,0002.19,0001.46,0000.61,0000.99,0000.19,-000.04,-000.35,0000.07,0000.57,19.2,25.7,05.1,03.5,0670.5,31.1
2021-08-05T22:56:00Z,00000200,00000000,0002.64,0001.78,0000.50,-000.32,0000.29,0000.31,0000.03,-000.20,-000.24,19.2,25.7,05.1,03.5,0670.5,31.1
2021-08-05T22:57:00Z,00000200,40000000,,,,,,,0000.73,0000.63,0000.58,19.2,25.7,05.2,03.5,0670.4,31.1
2021-08-05T22:58:00Z,00000200,60000000,,,,,,,-000.41,0000.05,-000.04,18.9,25.8,04.9,03.2,0669.5,31.0
2021-08-05T22:59:00Z,00000200,20000000,,,,,,,0000.62,-000.14,0000.17,18.9,25.9,04.9,03.2,0669.4,31.1
